Lander, WY

2:10 AM MST on December 10, 2016 (GMT -0700)
South Pass

Weather History for KFWZ - November, 2013

Change the Weather History Date:

Saturday, November 9, 2013

  Actual Average (KLND) Record (KLND)
Temperature  
Mean Temperature 34 °F -  
Max Temperature 42 °F 41 °F 68 °F (2016)
Min Temperature 26 °F 20 °F -11 °F (1950)
Degree Days  
Heating Degree Days 31    
Moisture  
Dew Point 22 °F    
Average Humidity 61    
Maximum Humidity 86    
Minimum Humidity 36    
Precipitation  
Precipitation 0.00 in - - ()
Sea Level Pressure  
Sea Level Pressure 30.11 in    
Wind  
Wind Speed 10 mph (WSW)    
Max Wind Speed 18 mph    
Max Gust Speed 26 mph    
Visibility 10 miles    
Events      
Averages and records for this station are not official NWS values.
T = Trace of Precipitation, MM = Missing Value Source: NWS Daily Summary

Daily Weather History Graph

Daily Weather History Graph

Search for Another Location

Airport or City:

Trip Planner

Search our weather history database for the weather conditions in past years. The results will help you decide how hot, cold, wet, or windy it might be!

Date:

Astronomy

Nov. 09, 2013 Rise Set
Actual Time 6:59 AM MST 4:58 PM MST
Civil Twilight 6:29 AM MST 5:28 PM MST
Nautical Twilight 5:55 AM MST 6:01 PM MST
Astronomical Twilight 5:22 AM MST 6:34 PM MST
Moon 12:36 PM MST (11/9) 11:34 PM MST (11/9)
Length of Visible Light 10h 58m
Length of Day
9h 59m
Waxing Crescent, 45% of the Moon is Illuminated
Nov 9
Waxing Crescent
Nov 9
First Quarter
Nov 17
Full
Nov 25
Last Quarter
Dec 2
New

Hourly Weather History & Observations

Time (MST) Temp. Windchill Dew Point Humidity Pressure Visibility Wind Dir Wind Speed Gust Speed Precip Events Conditions
12:15 AM 32.0 °F 23.0 °F 24.8 °F 75% 30.00 in 10.0 mi WSW 11.5 mph 19.6 mph N/A   Overcast
12:35 AM 32.0 °F 25.6 °F 23.0 °F 69% 30.00 in 10.0 mi SW 6.9 mph 17.3 mph N/A   Overcast
12:55 AM 32.0 °F 26.4 °F 24.8 °F 75% 30.01 in 10.0 mi SW 5.8 mph - N/A   Overcast
1:15 AM 32.0 °F 27.5 °F 26.6 °F 80% 30.01 in 10.0 mi SW 4.6 mph - N/A   Overcast
1:35 AM 32.0 °F 26.4 °F 26.6 °F 80% 30.00 in 10.0 mi SW 5.8 mph - N/A   Overcast
1:55 AM 32.0 °F 28.7 °F 26.6 °F 80% 30.01 in 10.0 mi SSW 3.5 mph - N/A   Overcast
2:15 AM 32.0 °F 26.4 °F 26.6 °F 80% 30.01 in 10.0 mi SSW 5.8 mph - N/A   Overcast
2:35 AM 32.0 °F 27.5 °F 26.6 °F 80% 30.02 in 10.0 mi SSW 4.6 mph - N/A   Overcast
2:55 AM 32.0 °F 26.4 °F 26.6 °F 80% 30.02 in 10.0 mi SSW 5.8 mph - N/A   Overcast
3:15 AM 32.0 °F 24.2 °F 26.6 °F 80% 30.03 in 10.0 mi SSW 9.2 mph 16.1 mph N/A   Mostly Cloudy
3:35 AM 30.2 °F 23.4 °F 24.8 °F 80% 30.03 in 10.0 mi SSW 6.9 mph - N/A   Scattered Clouds
3:55 AM 30.2 °F 23.4 °F 24.8 °F 80% 30.04 in 10.0 mi SSW 6.9 mph - N/A   Scattered Clouds
4:15 AM 30.2 °F 21.9 °F 23.0 °F 75% 30.04 in 10.0 mi SW 9.2 mph - N/A   Clear
4:35 AM 30.2 °F 24.3 °F 23.0 °F 75% 30.05 in 10.0 mi SSW 5.8 mph - N/A   Scattered Clouds
4:55 AM 28.4 °F 19.7 °F 23.0 °F 80% 30.05 in 10.0 mi SW 9.2 mph - N/A   Scattered Clouds
5:15 AM 28.4 °F 20.4 °F 23.0 °F 80% 30.06 in 10.0 mi SW 8.1 mph - N/A   Clear
5:35 AM 28.4 °F 19.7 °F 23.0 °F 80% 30.07 in 10.0 mi SW 9.2 mph - N/A   Clear
5:55 AM 28.4 °F 20.4 °F 23.0 °F 80% - 10.0 mi WSW 8.1 mph - N/A   Clear
6:15 AM 28.4 °F 21.2 °F 23.0 °F 80% - 10.0 mi SW 6.9 mph - N/A   Clear
6:35 AM 28.4 °F 20.4 °F 23.0 °F 80% 30.07 in 10.0 mi SW 8.1 mph - N/A   Clear
6:55 AM 26.6 °F 18.2 °F 23.0 °F 86% - 10.0 mi SW 8.1 mph - N/A   Clear
7:15 AM 26.6 °F 17.5 °F 23.0 °F 86% - 10.0 mi WSW 9.2 mph - N/A   Clear
7:35 AM 28.4 °F 20.4 °F 23.0 °F 80% - 10.0 mi WSW 8.1 mph - N/A   Clear
7:55 AM 30.2 °F 22.6 °F 23.0 °F 75% - 10.0 mi West 8.1 mph - N/A   Clear
8:15 AM 30.2 °F 21.3 °F 23.0 °F 75% - 10.0 mi West 10.4 mph - N/A   Clear
8:35 AM 32.0 °F 24.2 °F 23.0 °F 69% 30.12 in 10.0 mi WSW 9.2 mph - N/A   Clear
8:55 AM 32.0 °F 25.6 °F 23.0 °F 69% 30.12 in 10.0 mi West 6.9 mph - N/A   Clear
9:15 AM 33.8 °F 28.6 °F 21.2 °F 60% 30.12 in 10.0 mi West 5.8 mph - N/A   Clear
9:35 AM 35.6 °F 29.2 °F 21.2 °F 56% 30.12 in 10.0 mi WSW 8.1 mph - N/A   Clear
9:55 AM 35.6 °F 28.6 °F 21.2 °F 56% 30.12 in 10.0 mi WSW 9.2 mph - N/A   Clear
10:15 AM 37.4 °F 30.8 °F 21.2 °F 52% 30.12 in 10.0 mi WSW 9.2 mph - N/A   Clear
10:35 AM 37.4 °F 30.3 °F 21.2 °F 52% 30.13 in 10.0 mi WSW 10.4 mph - N/A   Clear
10:55 AM 37.4 °F 29.3 °F 21.2 °F 52% 30.12 in 10.0 mi WSW 12.7 mph 17.3 mph N/A   Clear
11:15 AM 39.2 °F 32.0 °F 21.2 °F 49% 30.12 in 10.0 mi WSW 11.5 mph 16.1 mph N/A   Clear
11:35 AM 41.0 °F 33.5 °F 19.4 °F 42% 30.12 in 10.0 mi WSW 13.8 mph 19.6 mph N/A   Clear
11:55 AM 41.0 °F 33.9 °F 19.4 °F 42% 30.12 in 10.0 mi WSW 12.7 mph - N/A   Clear
12:15 PM 41.0 °F 33.5 °F 19.4 °F 42% 30.12 in 10.0 mi WSW 13.8 mph 23.0 mph N/A   Clear
12:35 PM 41.0 °F 34.3 °F 17.6 °F 39% 30.11 in 10.0 mi WSW 11.5 mph 20.7 mph N/A   Clear
12:55 PM 42.8 °F 34.8 °F 17.6 °F 36% 30.11 in 10.0 mi WSW 17.3 mph 23.0 mph N/A   Clear
1:15 PM 42.8 °F 34.8 °F 17.6 °F 36% 30.11 in 10.0 mi WSW 17.3 mph 23.0 mph N/A   Clear
1:35 PM 42.8 °F 34.5 °F 17.6 °F 36% 30.11 in 10.0 mi WSW 18.4 mph 26.5 mph N/A   Clear
1:55 PM 42.8 °F 34.8 °F 19.4 °F 39% 30.11 in 10.0 mi WSW 17.3 mph 20.7 mph N/A   Clear
2:15 PM 42.8 °F 35.1 °F 19.4 °F 39% 30.11 in 10.0 mi WSW 16.1 mph 23.0 mph N/A   Clear
2:35 PM 42.8 °F 34.8 °F 19.4 °F 39% 30.12 in 10.0 mi WSW 17.3 mph 21.9 mph N/A   Clear
2:55 PM 41.0 °F 32.8 °F 21.2 °F 45% 30.12 in 10.0 mi WSW 16.1 mph 23.0 mph N/A   Clear
3:15 PM 41.0 °F 32.5 °F 21.2 °F 45% 30.13 in 10.0 mi WSW 17.3 mph 24.2 mph N/A   Clear
3:35 PM 41.0 °F 33.1 °F 21.2 °F 45% 30.14 in 10.0 mi WSW 15.0 mph 25.3 mph N/A   Clear
3:55 PM 41.0 °F 33.1 °F 21.2 °F 45% 30.14 in 10.0 mi WSW 15.0 mph 21.9 mph N/A   Clear
4:15 PM 41.0 °F 33.5 °F 21.2 °F 45% 30.15 in 10.0 mi WSW 13.8 mph 19.6 mph N/A   Clear
4:35 PM 41.0 °F 33.5 °F 21.2 °F 45% 30.15 in 10.0 mi WSW 13.8 mph 21.9 mph N/A   Clear
4:55 PM 39.2 °F 32.5 °F 21.2 °F 49% 30.15 in 10.0 mi WSW 10.4 mph - N/A   Clear
5:15 PM 37.4 °F 32.1 °F 21.2 °F 52% 30.16 in 10.0 mi WSW 6.9 mph - N/A   Clear
5:35 PM 37.4 °F 32.8 °F 21.2 °F 52% 30.16 in 10.0 mi West 5.8 mph - N/A   Clear
5:55 PM 37.4 °F 30.8 °F 21.2 °F 52% 30.16 in 10.0 mi West 9.2 mph - N/A   Clear
6:15 PM 37.4 °F 30.8 °F 23.0 °F 56% 30.16 in 10.0 mi West 9.2 mph - N/A   Clear
6:35 PM 35.6 °F 27.1 °F 23.0 °F 60% 30.16 in 10.0 mi WSW 12.7 mph - N/A   Clear
6:55 PM 37.4 °F 27.8 °F 23.0 °F 56% 30.16 in 10.0 mi WSW 17.3 mph - N/A   Clear
7:35 PM 37.4 °F 27.5 °F 23.0 °F 56% 30.15 in 10.0 mi WSW 18.4 mph 25.3 mph N/A   Clear
7:55 PM 37.4 °F 28.2 °F 23.0 °F 56% 30.16 in 10.0 mi WSW 16.1 mph 21.9 mph N/A   Clear
8:15 PM 37.4 °F 28.9 °F 23.0 °F 56% 30.17 in 10.0 mi WSW 13.8 mph - N/A   Clear
8:35 PM 37.4 °F 30.3 °F 23.0 °F 56% 30.17 in 10.0 mi WSW 10.4 mph - N/A   Clear
8:55 PM 35.6 °F 28.0 °F 23.0 °F 60% 30.18 in 10.0 mi West 10.4 mph - N/A   Clear
9:15 PM 37.4 °F 31.4 °F 21.2 °F 52% 30.18 in 10.0 mi West 8.1 mph - N/A   Clear
9:35 PM 37.4 °F 31.4 °F 23.0 °F 56% 30.18 in 10.0 mi West 8.1 mph - N/A   Clear
9:55 PM 37.4 °F 30.8 °F 23.0 °F 56% 30.19 in 10.0 mi West 9.2 mph - N/A   Clear
10:15 PM 37.4 °F 30.8 °F 23.0 °F 56% 30.19 in 10.0 mi West 9.2 mph - N/A   Clear
10:35 PM 37.4 °F 29.3 °F 23.0 °F 56% 30.19 in 10.0 mi West 12.7 mph 17.3 mph N/A   Clear
10:55 PM 37.4 °F 29.8 °F 23.0 °F 56% 30.20 in 10.0 mi West 11.5 mph 17.3 mph N/A   Clear
11:15 PM 37.4 °F 28.9 °F 23.0 °F 56% 30.20 in 10.0 mi West 13.8 mph 19.6 mph N/A   Clear
11:35 PM 37.4 °F 28.9 °F 23.0 °F 56% 30.20 in 10.0 mi West 13.8 mph - N/A   Clear
11:55 PM 37.4 °F 28.9 °F 23.0 °F 56% 30.20 in 10.0 mi West 13.8 mph 19.6 mph N/A   Clear